Location: Azul
(36.7830°S, 59.8500°W)
Time: 10:08:16
(UTC-03:00)

UWE-3 - Pass Details

Date: 26 October 2021
Orbit: 584 x 681 km, 97.7° (Epoch: 06 December)

Event Time Altitude Azimuth Distance (km) Brightness Sun altitude
Exits shadow 04:43:43 20° 333° (NNW) 1,456 ? -15.1°
Maximum altitude 04:46:12 36° 277° (W) 998 ? -14.6°
Drops below altitude 10° 04:50:21 10° 210° (SSW) 2,060 ? -13.9°
Sets 04:52:46 0° 201° (SSW) 2,995 ? -13.5°
